Location: Medlow Airstrip Trail, Medlow Bath NSW 2780, Australia
(33.6682°S, 150.3233°E)
Time: 21:48:03
(UTC+11:00)

Explorer 11/Cluster Stage 4 - Pass Details

Date: 26 September 2019
Orbit: 467 x 1259 km, 28.8° (Epoch: 17 October)

Event Time Altitude Azimuth Distance (km) Brightness Sun altitude
Rises 08:51:12 0° 289° (WNW) 2,777 9.1 36.9°
Reaches altitude 10° 08:53:21 10° 295° (WNW) 1,972 8.4 37.3°
Maximum altitude 08:57:46 47° 8° (N) 940 8.0 38.1°
Drops below altitude 10° 09:03:16 10° 80° (E) 2,458 10.2 39.1°
Sets 09:06:13 0° 85° (E) 3,544 10.7 39.6°
